nws-alerts: Checking more than four warning/county codes can delay the loading of your pages. You should use a cron job to get the data.
EllijayWeather Historical Data
Daily Summary for December 14, 2018 Units:  English    Metric   Both
Daily Weekly Monthly Yearly
  High: Low: Average:
Temperature: 54.0 °F 48.0 °F 51.3 °F
Dew Point: 42.0 °F 27.0 °F 30.9 °F
Humidity: 74% 37% 46%
Wind Speed: 11mph 0mph 3.5mph
Wind Gust: 11mph - -
Wind- - SE
Pressure: 30.2 in 29.9 in -
Precipitation: 0.270 in    
 
 
Tabular Data for December 14, 2018
Time Temperature Dew Point Pressure Wind Wind Speed Wind Gust Humidity Rainfall Rate (Hourly)
00:04 49.0 °F 38.0 °F 30.2 in SE 6 mph 7 mph 66% 0.000 in
00:09 49.0 °F 38.0 °F 30.2 in SE 4 mph 7 mph 66% 0.000 in
00:14 49.0 °F 39.0 °F 30.2 in SE 6 mph 7 mph 67% 0.000 in
00:19 49.0 °F 39.0 °F 30.2 in ESE 4 mph 7 mph 67% 0.000 in
00:24 49.0 °F 39.0 °F 30.2 in SE 1 mph 5 mph 68% 0.000 in
00:29 49.0 °F 40.0 °F 30.2 in SE 4 mph 4 mph 69% 0.000 in
00:34 49.0 °F 40.0 °F 30.2 in SE 5 mph 6 mph 69% 0.000 in
00:39 49.0 °F 40.0 °F 30.2 in SE 1 mph 7 mph 69% 0.000 in
00:44 49.0 °F 40.0 °F 30.2 in SSE 1 mph 2 mph 69% 0.000 in
00:49 49.0 °F 40.0 °F 30.2 in SE 2 mph 5 mph 70% 0.000 in
00:54 49.0 °F 40.0 °F 30.2 in ESE 3 mph 6 mph 70% 0.000 in
00:59 49.0 °F 40.0 °F 30.2 in SE 5 mph 6 mph 71% 0.000 in
01:04 49.0 °F 40.0 °F 30.2 in ESE 2 mph 5 mph 71% 0.000 in
01:09 49.0 °F 41.0 °F 30.2 in East 4 mph 7 mph 72% 0.000 in
01:14 50.0 °F 41.0 °F 30.2 in SE 6 mph 7 mph 72% 0.000 in
01:19 50.0 °F 41.0 °F 30.2 in SE 6 mph 6 mph 72% 0.000 in
01:24 50.0 °F 41.0 °F 30.2 in SE 9 mph 11 mph 73% 0.000 in
01:29 50.0 °F 41.0 °F 30.2 in SE 6 mph 7 mph 73% 0.000 in
01:34 50.0 °F 41.0 °F 30.2 in SE 4 mph 6 mph 73% 0.000 in
01:39 50.0 °F 41.0 °F 30.2 in ESE 5 mph 6 mph 73% 0.000 in
01:44 50.0 °F 42.0 °F 30.2 in SE 5 mph 6 mph 74% 0.000 in
01:49 50.0 °F 42.0 °F 30.2 in SE 4 mph 6 mph 74% 0.000 in
01:54 50.0 °F 42.0 °F 30.2 in SE 5 mph 10 mph 74% 0.000 in
01:59 50.0 °F 42.0 °F 30.2 in ESE 5 mph 7 mph 74% 0.000 in
02:04 50.0 °F 41.0 °F 30.2 in SE 6 mph 8 mph 73% 0.000 in
02:09 50.0 °F 41.0 °F 30.2 in ESE 6 mph 7 mph 73% 0.000 in
02:14 50.0 °F 41.0 °F 30.2 in SE 5 mph 7 mph 73% 0.000 in
02:19 50.0 °F 41.0 °F 30.2 in SE 4 mph 7 mph 73% 0.000 in
02:24 50.0 °F 41.0 °F 30.2 in ESE 2 mph 6 mph 72% 0.000 in
02:29 50.0 °F 41.0 °F 30.2 in SE 6 mph 6 mph 72% 0.000 in
02:34 50.0 °F 41.0 °F 30.2 in ESE 5 mph 6 mph 72% 0.000 in
02:39 50.0 °F 41.0 °F 30.2 in SE 1 mph 5 mph 72% 0.000 in
02:44 50.0 °F 41.0 °F 30.2 in ESE 4 mph 5 mph 72% 0.000 in
02:49 50.0 °F 41.0 °F 30.2 in SE 5 mph 6 mph 72% 0.000 in
02:54 50.0 °F 41.0 °F 30.2 in ESE 5 mph 6 mph 71% 0.000 in
02:59 50.0 °F 41.0 °F 30.2 in SE 7 mph 8 mph 71% 0.000 in
03:04 49.0 °F 40.0 °F 30.2 in ESE 4 mph 6 mph 71% 0.000 in
03:09 49.0 °F 40.0 °F 30.2 in SE 7 mph 9 mph 70% 0.000 in
03:14 49.0 °F 40.0 °F 30.2 in SE 7 mph 8 mph 70% 0.000 in
03:19 49.0 °F 40.0 °F 30.2 in ESE 7 mph 8 mph 69% 0.000 in
03:24 49.0 °F 39.0 °F 30.2 in ESE 2 mph 7 mph 68% 0.000 in
03:29 49.0 °F 39.0 °F 30.2 in ESE 2 mph 6 mph 67% 0.000 in
03:34 49.0 °F 39.0 °F 30.2 in ESE 5 mph 6 mph 67% 0.000 in
03:39 49.0 °F 38.0 °F 30.2 in East 4 mph 5 mph 66% 0.000 in
03:44 49.0 °F 38.0 °F 30.2 in ESE 1 mph 4 mph 65% 0.000 in
03:49 49.0 °F 37.0 °F 30.2 in ESE 2 mph 6 mph 64% 0.000 in
03:54 49.0 °F 37.0 °F 30.2 in SE 1 mph 5 mph 63% 0.000 in
03:59 49.0 °F 37.0 °F 30.2 in Calm   4 mph 62% 0.000 in
04:04 49.0 °F 36.0 °F 30.2 in SE 4 mph 4 mph 61% 0.000 in
04:09 49.0 °F 35.0 °F 30.2 in SE 4 mph 7 mph 60% 0.010 in
04:14 49.0 °F 34.0 °F 30.2 in ESE 2 mph 2 mph 57% 0.010 in
04:19 49.0 °F 34.0 °F 30.2 in SE 7 mph 7 mph 56% 0.010 in
04:24 49.0 °F 32.0 °F 30.2 in East 2 mph 4 mph 53% 0.010 in
04:29 49.0 °F 32.0 °F 30.2 in ESE 1 mph 4 mph 52% 0.020 in
04:34 48.0 °F 31.0 °F 30.2 in Calm   1 mph 51% 0.020 in
04:39 48.0 °F 30.0 °F 30.2 in Calm   2 mph 49% 0.020 in
04:44 48.0 °F 30.0 °F 30.2 in ESE 1 mph 5 mph 49% 0.020 in
04:49 48.0 °F 30.0 °F 30.2 in SE 2 mph 2 mph 48% 0.020 in
04:54 48.0 °F 29.0 °F 30.2 in SE 1 mph 5 mph 47% 0.020 in
04:59 48.0 °F 29.0 °F 30.2 in Calm   2 mph 46% 0.020 in
05:04 48.0 °F 29.0 °F 30.2 in SE 2 mph 2 mph 46% 0.030 in
05:09 48.0 °F 28.0 °F 30.1 in SE 1 mph 1 mph 45% 0.030 in
05:14 49.0 °F 28.0 °F 30.1 in ESE 2 mph 5 mph 45% 0.020 in
05:19 49.0 °F 28.0 °F 30.1 in SE 4 mph 5 mph 44% 0.020 in
05:24 49.0 °F 28.0 °F 30.1 in SE 2 mph 5 mph 44% 0.020 in
05:29 49.0 °F 27.0 °F 30.1 in SE 5 mph 5 mph 43% 0.020 in
05:34 49.0 °F 27.0 °F 30.1 in SE 2 mph 6 mph 43% 0.010 in
05:39 49.0 °F 27.0 °F 30.1 in Calm   2 mph 43% 0.010 in
05:44 49.0 °F 27.0 °F 30.1 in SE 5 mph 6 mph 43% 0.020 in
05:49 49.0 °F 27.0 °F 30.1 in ESE 1 mph 4 mph 42% 0.020 in
05:54 49.0 °F 27.0 °F 30.1 in ESE 2 mph 2 mph 42% 0.020 in
05:59 50.0 °F 27.0 °F 30.1 in SE 2 mph 4 mph 41% 0.020 in
06:04 50.0 °F 27.0 °F 30.1 in SE 2 mph 2 mph 41% 0.020 in
06:09 50.0 °F 27.0 °F 30.1 in Calm   1 mph 41% 0.020 in
06:14 50.0 °F 27.0 °F 30.1 in SE 4 mph 6 mph 41% 0.020 in
06:19 50.0 °F 27.0 °F 30.1 in ESE 4 mph 4 mph 41% 0.020 in
06:24 50.0 °F 27.0 °F 30.1 in SE 2 mph 4 mph 41% 0.020 in
06:29 50.0 °F 27.0 °F 30.1 in ESE 4 mph 6 mph 41% 0.020 in
06:34 50.0 °F 27.0 °F 30.1 in SE 5 mph 6 mph 41% 0.020 in
06:39 50.0 °F 27.0 °F 30.1 in SE 5 mph 5 mph 41% 0.020 in
06:44 50.0 °F 27.0 °F 30.1 in SE 7 mph 7 mph 40% 0.020 in
06:49 50.0 °F 27.0 °F 30.1 in SE 4 mph 7 mph 40% 0.010 in
06:54 50.0 °F 27.0 °F 30.1 in East 3 mph 5 mph 40% 0.010 in
06:59 50.0 °F 27.0 °F 30.1 in ESE 4 mph 7 mph 40% 0.010 in
07:04 50.0 °F 28.0 °F 30.1 in SE 6 mph 7 mph 41% 0.010 in
07:09 50.0 °F 28.0 °F 30.1 in SE 11 mph 11 mph 41% 0.010 in
07:14 50.0 °F 28.0 °F 30.1 in SE 5 mph 8 mph 41% 0.000 in
07:19 50.0 °F 28.0 °F 30.1 in SE 5 mph 8 mph 42% 0.000 in
07:24 50.0 °F 28.0 °F 30.1 in SE 5 mph 7 mph 42% 0.010 in
07:29 50.0 °F 28.0 °F 30.1 in SE 5 mph 7 mph 42% 0.010 in
07:34 50.0 °F 28.0 °F 30.1 in SE 4 mph 5 mph 42% 0.010 in
07:39 50.0 °F 28.0 °F 30.1 in SE 4 mph 5 mph 41% 0.010 in
07:44 50.0 °F 28.0 °F 30.1 in SE 5 mph 5 mph 41% 0.010 in
07:49 50.0 °F 28.0 °F 30.1 in East 2 mph 5 mph 41% 0.010 in
07:54 50.0 °F 28.0 °F 30.1 in ESE 4 mph 5 mph 41% 0.010 in
07:59 50.0 °F 28.0 °F 30.1 in SE 2 mph 7 mph 41% 0.010 in
08:04 51.0 °F 28.0 °F 30.1 in SE 1 mph 4 mph 41% 0.010 in
08:09 51.0 °F 28.0 °F 30.1 in SE 2 mph 4 mph 41% 0.010 in
08:14 50.0 °F 28.0 °F 30.1 in SE 5 mph 6 mph 41% 0.010 in
08:19 50.0 °F 28.0 °F 30.1 in SE 1 mph 6 mph 41% 0.010 in
08:24 50.0 °F 28.0 °F 30.1 in East 4 mph 6 mph 41% 0.010 in
08:29 51.0 °F 28.0 °F 30.1 in SE 2 mph 5 mph 41% 0.000 in
08:34 51.0 °F 28.0 °F 30.1 in SE 4 mph 6 mph 42% 0.000 in
08:39 51.0 °F 28.0 °F 30.1 in SE 4 mph 5 mph 42% 0.000 in
08:44 51.0 °F 28.0 °F 30.1 in SE 2 mph 7 mph 42% 0.000 in
08:49 51.0 °F 28.0 °F 30.1 in SE 2 mph 6 mph 42% 0.000 in
08:54 51.0 °F 28.0 °F 30.1 in Calm   4 mph 42% 0.000 in
08:59 51.0 °F 28.0 °F 30.1 in Calm   4 mph 42% 0.000 in
09:04 51.0 °F 28.0 °F 30.1 in SE 2 mph 5 mph 42% 0.000 in
09:09 51.0 °F 28.0 °F 30.1 in SE 2 mph 4 mph 42% 0.000 in
09:14 51.0 °F 28.0 °F 30.1 in SE 4 mph 5 mph 41% 0.000 in
09:19 51.0 °F 28.0 °F 30.1 in SSE 5 mph 7 mph 41% 0.000 in
09:24 51.0 °F 28.0 °F 30.1 in SE 5 mph 5 mph 41% 0.000 in
09:29 51.0 °F 29.0 °F 30.1 in SE 4 mph 7 mph 42% 0.000 in
09:34 51.0 °F 29.0 °F 30.1 in SE 5 mph 5 mph 42% 0.000 in
09:39 51.0 °F 29.0 °F 30.1 in SE 6 mph 8 mph 42% 0.000 in
09:44 51.0 °F 29.0 °F 30.1 in SE 2 mph 5 mph 42% 0.000 in
09:49 51.0 °F 29.0 °F 30.1 in SSE 5 mph 5 mph 42% 0.000 in
09:54 51.0 °F 29.0 °F 30.1 in SE 4 mph 5 mph 42% 0.000 in
09:59 51.0 °F 29.0 °F 30.1 in SE 4 mph 5 mph 42% 0.000 in
10:04 51.0 °F 28.0 °F 30.1 in SE 4 mph 5 mph 41% 0.000 in
10:09 51.0 °F 28.0 °F 30.1 in SE 4 mph 4 mph 41% 0.000 in
10:14 51.0 °F 28.0 °F 30.1 in SE 2 mph 4 mph 41% 0.000 in
10:19 51.0 °F 28.0 °F 30.1 in Calm   4 mph 41% 0.000 in
10:24 51.0 °F 28.0 °F 30.1 in Calm   2 mph 40% 0.000 in
10:29 51.0 °F 28.0 °F 30.1 in SE 4 mph 5 mph 40% 0.000 in
10:34 51.0 °F 28.0 °F 30.1 in SE 4 mph 4 mph 40% 0.000 in
10:39 51.0 °F 28.0 °F 30.1 in Calm   4 mph 40% 0.000 in
10:44 51.0 °F 28.0 °F 30.1 in SE 2 mph 5 mph 40% 0.000 in
10:49 51.0 °F 28.0 °F 30.1 in SE 4 mph 5 mph 40% 0.000 in
10:54 51.0 °F 28.0 °F 30.1 in SE 2 mph 5 mph 40% 0.000 in
10:59 51.0 °F 28.0 °F 30.1 in SE 2 mph 8 mph 40% 0.000 in
11:04 51.0 °F 28.0 °F 30.1 in SE 5 mph 8 mph 40% 0.000 in
11:09 51.0 °F 28.0 °F 30.1 in ESE 2 mph 6 mph 40% 0.000 in
11:14 51.0 °F 28.0 °F 30.1 in SE 6 mph 6 mph 40% 0.000 in
11:19 51.0 °F 28.0 °F 30.1 in SE 4 mph 5 mph 40% 0.000 in
11:24 51.0 °F 28.0 °F 30.1 in SE 4 mph 7 mph 40% 0.000 in
11:29 51.0 °F 28.0 °F 30.1 in SE 4 mph 5 mph 40% 0.000 in
11:34 51.0 °F 28.0 °F 30.1 in SE 5 mph 6 mph 40% 0.000 in
11:39 51.0 °F 28.0 °F 30.1 in SE 4 mph 5 mph 40% 0.000 in
11:44 51.0 °F 28.0 °F 30.1 in East 2 mph 6 mph 40% 0.000 in
11:49 51.0 °F 28.0 °F 30.1 in SE 5 mph 7 mph 40% 0.000 in
11:54 51.0 °F 28.0 °F 30.1 in SE 4 mph 4 mph 40% 0.000 in
11:59 51.0 °F 28.0 °F 30.1 in SE 6 mph 10 mph 40% 0.000 in
12:04 51.0 °F 28.0 °F 30.1 in SE 4 mph 8 mph 40% 0.000 in
12:09 51.0 °F 28.0 °F 30.1 in SE 7 mph 7 mph 40% 0.000 in
12:14 51.0 °F 29.0 °F 30.0 in ESE 6 mph 9 mph 41% 0.000 in
12:19 52.0 °F 29.0 °F 30.0 in SE 4 mph 6 mph 41% 0.000 in
12:24 52.0 °F 29.0 °F 30.0 in SE 6 mph 7 mph 42% 0.000 in
12:29 52.0 °F 29.0 °F 30.0 in SE 4 mph 6 mph 42% 0.000 in
12:34 52.0 °F 29.0 °F 30.0 in SE 6 mph 10 mph 42% 0.000 in
12:39 52.0 °F 30.0 °F 30.0 in SE 7 mph 7 mph 42% 0.000 in
12:44 52.0 °F 30.0 °F 30.0 in SE 6 mph 9 mph 42% 0.000 in
12:49 52.0 °F 30.0 °F 30.0 in ESE 5 mph 9 mph 42% 0.000 in
12:54 52.0 °F 30.0 °F 30.0 in SE 6 mph 7 mph 42% 0.000 in
12:59 52.0 °F 30.0 °F 30.0 in SE 7 mph 9 mph 43% 0.000 in
13:04 52.0 °F 30.0 °F 30.0 in ESE 5 mph 7 mph 43% 0.000 in
13:09 52.0 °F 31.0 °F 30.0 in SE 6 mph 6 mph 44% 0.000 in
13:14 52.0 °F 31.0 °F 30.0 in SE 6 mph 6 mph 44% 0.000 in
13:19 52.0 °F 32.0 °F 30.0 in ESE 8 mph 8 mph 45% 0.000 in
13:24 52.0 °F 32.0 °F 30.0 in SE 4 mph 7 mph 45% 0.000 in
13:29 52.0 °F 32.0 °F 30.0 in ESE 6 mph 8 mph 45% 0.000 in
13:34 52.0 °F 32.0 °F 30.0 in SE 8 mph 10 mph 45% 0.000 in
13:39 52.0 °F 31.0 °F 30.0 in ESE 7 mph 8 mph 45% 0.000 in
13:44 52.0 °F 31.0 °F 30.0 in SE 5 mph 7 mph 45% 0.000 in
13:49 52.0 °F 31.0 °F 30.0 in SE 6 mph 8 mph 45% 0.000 in
13:54 52.0 °F 31.0 °F 30.0 in SE 5 mph 10 mph 45% 0.000 in
13:59 52.0 °F 31.0 °F 30.0 in SE 4 mph 10 mph 45% 0.000 in
14:04 52.0 °F 31.0 °F 30.0 in SE 6 mph 7 mph 45% 0.000 in
14:09 52.0 °F 31.0 °F 30.0 in SE 6 mph 7 mph 45% 0.000 in
14:14 52.0 °F 32.0 °F 30.0 in SE 4 mph 6 mph 46% 0.000 in
14:19 52.0 °F 32.0 °F 30.0 in ESE 4 mph 5 mph 46% 0.000 in
14:24 52.0 °F 31.0 °F 30.0 in ESE 5 mph 5 mph 45% 0.010 in
14:29 52.0 °F 31.0 °F 30.0 in SE 2 mph 5 mph 45% 0.010 in
14:34 52.0 °F 30.0 °F 30.0 in ESE 1 mph 4 mph 44% 0.010 in
14:39 52.0 °F 30.0 °F 30.0 in SSE 2 mph 5 mph 43% 0.010 in
14:44 52.0 °F 30.0 °F 30.0 in ESE 4 mph 5 mph 43% 0.010 in
14:49 52.0 °F 30.0 °F 30.0 in SE 4 mph 7 mph 43% 0.010 in
14:54 52.0 °F 30.0 °F 30.0 in ESE 4 mph 5 mph 42% 0.010 in
14:59 52.0 °F 30.0 °F 30.0 in ESE 2 mph 4 mph 43% 0.010 in
15:04 52.0 °F 30.0 °F 30.0 in SSE 5 mph 9 mph 43% 0.010 in
15:09 52.0 °F 30.0 °F 30.0 in SE 4 mph 9 mph 43% 0.010 in
15:14 52.0 °F 30.0 °F 30.0 in SE 2 mph 5 mph 43% 0.010 in
15:19 52.0 °F 31.0 °F 30.0 in Calm   4 mph 44% 0.010 in
15:24 52.0 °F 31.0 °F 30.0 in Calm   1 mph 44% 0.000 in
15:29 52.0 °F 31.0 °F 30.0 in ESE 4 mph 4 mph 43% 0.000 in
15:34 52.0 °F 31.0 °F 30.0 in ESE 4 mph 4 mph 44% 0.010 in
15:39 52.0 °F 31.0 °F 30.0 in SE 2 mph 4 mph 44% 0.010 in
15:44 52.0 °F 31.0 °F 30.0 in SE 2 mph 5 mph 43% 0.020 in
15:49 52.0 °F 31.0 °F 30.0 in SE 5 mph 5 mph 43% 0.020 in
15:54 52.0 °F 30.0 °F 30.0 in ESE 5 mph 7 mph 42% 0.020 in
15:59 52.0 °F 30.0 °F 30.0 in ESE 6 mph 9 mph 42% 0.020 in
16:04 52.0 °F 30.0 °F 30.0 in SE 7 mph 9 mph 42% 0.020 in
16:09 52.0 °F 30.0 °F 30.0 in ESE 4 mph 6 mph 42% 0.030 in
16:14 52.0 °F 30.0 °F 30.0 in ESE 5 mph 7 mph 42% 0.040 in
16:19 52.0 °F 30.0 °F 30.0 in SE 4 mph 7 mph 42% 0.040 in
16:24 52.0 °F 30.0 °F 30.0 in SSE 1 mph 2 mph 42% 0.040 in
16:29 52.0 °F 29.0 °F 30.0 in SE 4 mph 5 mph 41% 0.040 in
16:34 52.0 °F 29.0 °F 30.0 in SE 7 mph 8 mph 41% 0.040 in
16:39 52.0 °F 29.0 °F 30.0 in SE 4 mph 7 mph 40% 0.030 in
16:44 52.0 °F 29.0 °F 30.0 in SSE 4 mph 6 mph 40% 0.030 in
16:49 52.0 °F 29.0 °F 30.0 in SE 5 mph 8 mph 40% 0.020 in
16:54 52.0 °F 29.0 °F 30.0 in SE 5 mph 7 mph 40% 0.020 in
16:59 52.0 °F 29.0 °F 30.0 in SE 4 mph 7 mph 40% 0.020 in
17:04 53.0 °F 29.0 °F 30.0 in East 4 mph 6 mph 40% 0.020 in
17:09 53.0 °F 28.0 °F 29.9 in ESE 1 mph 4 mph 39% 0.020 in
17:14 53.0 °F 28.0 °F 29.9 in Calm     39% 0.010 in
17:19 53.0 °F 29.0 °F 29.9 in Calm     39% 0.000 in
17:24 53.0 °F 29.0 °F 29.9 in ESE 1 mph 1 mph 39% 0.000 in
17:29 53.0 °F 28.0 °F 29.9 in ESE 2 mph 3 mph 38% 0.000 in
17:34 53.0 °F 28.0 °F 30.0 in WSW 2 mph 3 mph 38% 0.000 in
17:39 53.0 °F 28.0 °F 30.0 in Calm     38% 0.000 in
17:44 53.0 °F 28.0 °F 30.0 in WSW 1 mph 1 mph 38% 0.000 in
17:49 53.0 °F 28.0 °F 30.0 in Calm   1 mph 38% 0.000 in
17:54 53.0 °F 28.0 °F 30.0 in Calm   1 mph 38% 0.000 in
17:59 53.0 °F 28.0 °F 30.0 in SE 2 mph 4 mph 38% 0.000 in
18:04 54.0 °F 29.0 °F 30.0 in ESE 1 mph 4 mph 38% 0.000 in
18:09 54.0 °F 28.0 °F 30.0 in ESE 1 mph 4 mph 37% 0.000 in
18:14 54.0 °F 29.0 °F 30.0 in ESE 2 mph 4 mph 37% 0.000 in
18:19 54.0 °F 29.0 °F 30.0 in ESE 4 mph 4 mph 37% 0.000 in
18:24 54.0 °F 29.0 °F 30.0 in SE 4 mph 8 mph 38% 0.000 in
18:29 54.0 °F 30.0 °F 30.0 in Calm     39% 0.000 in
18:34 54.0 °F 30.0 °F 30.0 in SE 2 mph 2 mph 40% 0.000 in
18:39 54.0 °F 30.0 °F 30.0 in SSE 8 mph 8 mph 40% 0.000 in
18:44 54.0 °F 30.0 °F 30.0 in SSE 2 mph 8 mph 40% 0.000 in
18:49 54.0 °F 30.0 °F 30.0 in Calm   5 mph 40% 0.000 in
18:54 54.0 °F 30.0 °F 30.0 in SE 2 mph 6 mph 40% 0.000 in
18:59 54.0 °F 30.0 °F 30.0 in SSE 4 mph 6 mph 40% 0.000 in
19:04 54.0 °F 30.0 °F 30.0 in SSE 1 mph 4 mph 41% 0.000 in
19:09 53.0 °F 30.0 °F 30.0 in SE 1 mph 6 mph 41% 0.000 in
19:14 53.0 °F 30.0 °F 30.0 in SE 1 mph 2 mph 41% 0.000 in
19:19 53.0 °F 30.0 °F 30.0 in SSE 2 mph 5 mph 41% 0.000 in
19:24 53.0 °F 31.0 °F 30.0 in ESE 5 mph 7 mph 42% 0.000 in
19:29 53.0 °F 31.0 °F 30.0 in ESE 3 mph 5 mph 42% 0.000 in
19:34 53.0 °F 31.0 °F 30.0 in SE 4 mph 6 mph 43% 0.000 in
19:39 53.0 °F 32.0 °F 30.0 in SE 5 mph 6 mph 44% 0.000 in
19:44 53.0 °F 32.0 °F 30.0 in SE 1 mph 6 mph 44% 0.000 in
19:49 53.0 °F 32.0 °F 30.0 in SE 4 mph 6 mph 45% 0.000 in
19:54 53.0 °F 32.0 °F 30.0 in SE 2 mph 6 mph 45% 0.000 in
19:59 53.0 °F 33.0 °F 30.0 in Calm   4 mph 45% 0.000 in
20:04 53.0 °F 33.0 °F 30.0 in Calm   1 mph 45% 0.000 in
20:09 53.0 °F 33.0 °F 30.0 in SE 5 mph 6 mph 45% 0.000 in
20:14 53.0 °F 33.0 °F 30.0 in SE 5 mph 7 mph 45% 0.000 in
20:19 53.0 °F 33.0 °F 30.0 in SE 4 mph 6 mph 45% 0.020 in
20:24 53.0 °F 32.0 °F 30.0 in Calm   2 mph 44% 0.080 in
20:29 53.0 °F 31.0 °F 30.0 in SE 4 mph 4 mph 43% 0.090 in
20:34 53.0 °F 31.0 °F 30.0 in SE 4 mph 4 mph 42% 0.100 in
20:39 53.0 °F 30.0 °F 30.0 in Calm   4 mph 41% 0.100 in
20:44 53.0 °F 29.0 °F 30.0 in ESE 1 mph 4 mph 40% 0.100 in
20:49 53.0 °F 29.0 °F 30.0 in SE 5 mph 9 mph 40% 0.100 in
20:54 53.0 °F 29.0 °F 30.0 in ESE 2 mph 6 mph 40% 0.110 in
20:59 53.0 °F 28.0 °F 30.0 in ESE 4 mph 6 mph 39% 0.110 in
21:04 53.0 °F 28.0 °F 30.0 in ESE 2 mph 5 mph 39% 0.110 in
21:09 53.0 °F 28.0 °F 30.0 in SE 6 mph 7 mph 39% 0.110 in
21:14 53.0 °F 28.0 °F 30.0 in ESE 5 mph 6 mph 38% 0.110 in
21:19 53.0 °F 28.0 °F 30.0 in SE 2 mph 2 mph 38% 0.110 in
21:24 53.0 °F 28.0 °F 30.0 in SE 1 mph 1 mph 38% 0.080 in
21:29 53.0 °F 28.0 °F 30.0 in SE 4 mph 5 mph 38% 0.030 in
21:34 53.0 °F 28.0 °F 30.0 in SE 4 mph 6 mph 38% 0.010 in
21:39 53.0 °F 28.0 °F 30.0 in SE 4 mph 4 mph 38% 0.020 in
21:44 53.0 °F 28.0 °F 30.0 in Calm     38% 0.020 in
21:49 53.0 °F 28.0 °F 30.0 in Calm   1 mph 38% 0.020 in
21:54 53.0 °F 28.0 °F 30.0 in ESE 2 mph 4 mph 38% 0.020 in
21:59 52.0 °F 28.0 °F 30.0 in SE 2 mph 4 mph 38% 0.010 in
22:04 52.0 °F 27.0 °F 30.0 in SE 2 mph 6 mph 38% 0.010 in
22:09 52.0 °F 27.0 °F 30.0 in ESE 1 mph 6 mph 38% 0.020 in
22:14 52.0 °F 27.0 °F 30.0 in SE 4 mph 4 mph 38% 0.030 in
22:19 52.0 °F 27.0 °F 30.0 in SE 2 mph 4 mph 38% 0.030 in
22:24 52.0 °F 27.0 °F 30.0 in SE 4 mph 4 mph 38% 0.030 in
22:29 52.0 °F 27.0 °F 30.0 in ESE 5 mph 5 mph 38% 0.040 in
22:34 52.0 °F 28.0 °F 30.0 in ESE 4 mph 6 mph 38% 0.040 in
22:39 52.0 °F 27.0 °F 30.0 in SE 4 mph 5 mph 37% 0.030 in
22:44 53.0 °F 27.0 °F 30.0 in SE 4 mph 6 mph 37% 0.030 in
22:49 53.0 °F 27.0 °F 30.0 in SE 5 mph 6 mph 37% 0.030 in
22:54 53.0 °F 27.0 °F 30.0 in ESE 6 mph 9 mph 37% 0.030 in
22:59 53.0 °F 27.0 °F 30.0 in SE 4 mph 5 mph 37% 0.040 in
23:04 53.0 °F 27.0 °F 30.0 in ESE 6 mph 7 mph 37% 0.040 in
23:09 53.0 °F 27.0 °F 29.9 in ESE 4 mph 7 mph 37% 0.040 in
23:14 53.0 °F 27.0 °F 30.0 in SE 4 mph 6 mph 37% 0.030 in
23:19 53.0 °F 27.0 °F 30.0 in SE 6 mph 6 mph 37% 0.020 in
23:24 53.0 °F 27.0 °F 30.0 in SE 5 mph 7 mph 37% 0.020 in
23:29 53.0 °F 27.0 °F 29.9 in ESE 4 mph 5 mph 37% 0.020 in
23:34 53.0 °F 27.0 °F 29.9 in SE 1 mph 4 mph 37% 0.010 in
23:39 53.0 °F 28.0 °F 29.9 in SE 4 mph 7 mph 37% 0.010 in
23:44 53.0 °F 28.0 °F 29.9 in Calm   2 mph 37% 0.010 in
23:49 53.0 °F 28.0 °F 29.9 in SE 5 mph 5 mph 37% 0.010 in
23:54 53.0 °F 28.0 °F 30.0 in SE 4 mph 5 mph 37% 0.010 in
23:59 53.0 °F 27.0 °F 30.0 in SE 6 mph 8 mph 37% 0.010 in
East Ellijay Weather
Compliments of Weather Underground - 2 mb